Details for Ryanair at GCTS




Go Back


Latest METAR
Local Time

GCTS 181400Z 11018KT 080V140 9999 FEW030 27/19 Q1016 NOSIG
18/09/2018, 15:33:54

Description
Results
Ryanair Logo
Number of Pilots based at GCTS
0 Pilots Based here
Number of Ryanair Flights Departed from GCTS
6 Flights Departed
Number of Ryanair Flights Arrived at GCTS
5 Flights Arrived
Number of Ryanair Schedules Departing from GCTS
54 Schedules
Number of Ryanair Schedules Arriving at GCTS
52 Schedules
Number of Ryanair Schedules Departing from GCTS availible today
15 Schedules Today
Number of Ryanair Schedules Arriving at GCTS availible today
14 Schedules Today
Average Landing Rate at GCTS
-218 fpm
Ryanair Average Landing Rate at GCTS
-165 fpm
Total Fuel Purchased at GCTS by Ryanair
39,246.96 kgs / 86,523.85 lbs

Pilots Based at GCTS


Pilot ID
Pilot Name
Pilot Rank
No. of Flights
No. of Flying Hours
There are no pilots assigned to this hub!   Will you be the first?
Content